Regional Weather Roundup
Issued by NWS

Home | Current Version | Previous Version | Graphics & Text | Print | Product List | Glossary On
Versions: 1 2 3 4 5 6 7 8 9 10 11 12 13 14 15 16 17 18 19 20 21 22 23 24 25 26 27 28 29 30 31 32 33 34 35 36 37 38 39 40 41 42 43 44 45 46 47 48 49 50
000
ASUS45 KCYS 231410
RWRWY

WYOMING REGIONAL WEATHER ROUNDUP
NATIONAL WEATHER SERVICE CHEYENNE WY
700 AM MST SUN NOV 23 2014

NOTE:  "FAIR" INDICATES FEW OR NO CLOUDS BELOW 12,000 FEET
WITH NO SIGNIFICANT WEATHER AND/OR OBSTRUCTIONS TO VISIBILITY.

WYZ001-231500-
YELLOWSTONE NATIONAL PARK

CITY           SKY/WX    TMP DP  RH WIND       PRES   REMARKS
LK YELLOWSTONE   N/A     15  11  83 VRB3      29.90R
W YELLOWSTONE  NOT AVBL

$$
WYZ002>013-054>058-071-098>099-231500-
NORTHERN WYOMING

CITY           SKY/WX    TMP DP  RH WIND       PRES   REMARKS
JACKSON        CLOUDY    27  18  69 SW8       29.94R WCI  18
CODY           PTCLDY    28  16  59 S5        29.85R WCI  23
GREYBULL       CLOUDY    32  20  61 NW12      29.85R WCI  23
WORLAND        MOCLDY    20  16  84 S7        29.86R WCI  11
SHERIDAN       CLOUDY    33  18  53 NW15      29.81R WCI  23
BUFFALO        PTCLDY    31  12  45 NW15G23   29.78R WCI  20
GILLETTE       NOT AVBL
HULETT           N/A    N/A N/A N/A MISG        N/A
NEWCASTLE      FAIR      25  18  74 NW9       29.75R WCI  15

$$
WYZ014>020-022>026-101>103-231500-
CENTRAL WYOMING

CITY           SKY/WX    TMP DP  RH WIND       PRES   REMARKS
BIG PINEY      MOCLDY    36  16  44 NW13G21   29.92R WCI  27
PINEDALE       MOSUNNY   19  18  93 W13       29.90R WCI   7
DUBOIS         PTSUNNY   21  14  73 NW9       29.85R WCI  11
LANDER         NOT AVBL
RIVERTON       MOCLDY    28  16  60 NW17G28   29.83R WCI  16
CASPER         MOCLDY    23  16  74 W7        29.80R WCI  15
DOUGLAS        MOCLDY   N/A N/A N/A N5        29.79R

$$
WYZ021-027>030-104>119-231500-
SOUTHERN WYOMING

CITY           SKY/WX    TMP DP  RH WIND       PRES   REMARKS
EVANSTON       CLOUDY    22  17  81 W10       29.98R WCI  11
KEMMERER       LGT SNOW  23  21  93 W22G35    29.93R WCI   8
FORT BRIDGER   CLOUDY    25  22  87 W13G21    29.98R WCI  14
ROCK SPRINGS   CLOUDY    24  19  81 W28G35    29.88R WCI   7
DIXON          FLURRIES  25  22  89 W3        29.89R
RAWLINS        MOCLDY    21  16  81 W8G18     29.83R WCI  11
SARATOGA       PTSUNNY   21  18  86 CALM      29.83R
LARAMIE        CLEAR     24   8  50 N9        29.76R WCI  14
CHEYENNE       PTCLDY    29  15  56 NW14      29.74R WCI  18
TORRINGTON     MOCLDY    25  19  78 W10       29.75R WCI  15
PINE BLUFFS    FAIR      23  21  93 NW9       29.74S WCI  13

$$


USA.gov is the U.S. government's official web portal to all federal, state and local government web resources and services.